Weather History for KBCB - July, 2013

Change the Weather History Date:

Thursday, July 4, 2013

  Actual Average Record
Temperature  
Mean Temperature 74 °F 71 °F  
Max Temperature 82 °F 82 °F 94 °F (1966)
Min Temperature 65 °F 60 °F 45 °F (1971)
Degree Days  
Heating Degree Days 0 0  
Month to date heating degree days 0 0  
Since 1 June heating degree days 7 38  
Since 1 July heating degree days 0 0  
Cooling Degree Days 9 6  
Month to date cooling degree days 25 24  
Year to date cooling degree days 172 172  
Since 1 June cooling degree days 141 143  
Growing Degree Days 25 (Base 50)    
Moisture  
Dew Point 71 °F    
Average Humidity 85    
Maximum Humidity 100    
Minimum Humidity 69    
Precipitation  
Precipitation 0.38 in 0.13 in 0.95 in (1962)
Month to date precipitation 3.83 0.50  
Year to date precipitation 33.64 21.84  
Snow  
Snow 0.00 in - - ()
Month to date snowfall 0.0  
Since 1 June snowfall T  
Since 1 July snowfall 0.0  
Snow Depth 0.00 in    
Sea Level Pressure  
Sea Level Pressure 30.31 in    
Wind  
Wind Speed 5 mph (SE)    
Max Wind Speed 16 mph    
Max Gust Speed 23 mph    
Visibility 10 miles    
Events Rain , Thunderstorm    
T = Trace of Precipitation, MM = Missing Value Source: NWS Daily Summary

Daily Weather History Graph

Daily Weather History Graph

Search for Another Location

Airport or City:

Trip Planner

Search our weather history database for the weather conditions in past years. The results will help you decide how hot, cold, wet, or windy it might be!

Date:

Astronomy

Jul. 04, 2013 Rise Set
Actual Time 6:06 AM EDT 8:45 PM EDT
Civil Twilight 5:35 AM EDT 9:16 PM EDT
Nautical Twilight 4:57 AM EDT 9:54 PM EDT
Astronomical Twilight 4:14 AM EDT 10:36 PM EDT
Moon 3:20 AM EDT (7/4) 5:49 PM EDT (7/4)
Length of Visible Light 15h 40m
Length of Day
14h 38m
Waning Crescent, 11% of the Moon is Illuminated
Jul 4
Waning Crescent
Jul 8
New
Jul 15
First Quarter
Jul 22
Full
Jul 29
Last Quarter

Hourly Weather History & Observations

Time (EDT) Temp. Heat Index Dew Point Humidity Pressure Visibility Wind Dir Wind Speed Gust Speed Precip Events Conditions
12:15 AM 69.8 °F - 69.8 °F 100% 30.31 in 10.0 mi ESE 3.5 mph - 0.01 in Rain Light Rain
12:35 AM 69.8 °F - 69.8 °F 100% 30.31 in 10.0 mi ESE 4.6 mph - 0.05 in Rain Light Rain
12:55 AM 69.8 °F - 69.8 °F 100% 30.31 in 10.0 mi ESE 3.5 mph - 0.09 in Rain Rain
1:15 AM 69.8 °F - 69.8 °F 100% 30.31 in 10.0 mi Calm Calm - 0.03 in Rain Light Rain
1:35 AM 69.8 °F - 69.8 °F 100% 30.31 in - Calm Calm - N/A   Unknown
1:55 AM 69.8 °F - 69.8 °F 100% 30.31 in 10.0 mi Calm Calm - N/A   Overcast
2:15 AM 69.8 °F - 69.8 °F 100% 30.31 in 7.0 mi SE 3.5 mph - 0.02 in Rain Rain
2:35 AM 69.8 °F - 69.8 °F 100% 30.31 in 10.0 mi Calm Calm - 0.03 in   Light Drizzle
2:55 AM 69.8 °F - 69.8 °F 100% 30.31 in 10.0 mi Calm Calm - 0.03 in   Mostly Cloudy
3:15 AM 69.8 °F - 69.8 °F 100% 30.31 in 7.0 mi Calm Calm - 0.01 in Rain Rain
3:35 AM 69.8 °F - 69.8 °F 100% 30.30 in 5.0 mi Calm Calm - 0.11 in Rain Rain
3:55 AM 69.8 °F - 69.8 °F 100% 30.30 in 10.0 mi Calm Calm - 0.12 in Rain Rain
4:15 AM 69.8 °F - 69.8 °F 100% 30.30 in 10.0 mi Calm Calm - 0.01 in Rain Light Rain
4:35 AM 69.8 °F - 69.8 °F 100% 30.30 in 10.0 mi Calm Calm - 0.01 in   Light Drizzle
4:55 AM 69.8 °F - 69.8 °F 100% 30.31 in 10.0 mi ESE 3.5 mph - 0.01 in   Overcast
5:15 AM 69.8 °F - 69.8 °F 100% 30.31 in 10.0 mi Calm Calm - 0.01 in Rain Light Rain
5:35 AM 69.8 °F - 69.8 °F 100% 30.32 in 7.0 mi Calm Calm - 0.02 in Rain Rain
5:55 AM 69.8 °F - 69.8 °F 100% 30.32 in 10.0 mi Calm Calm - 0.03 in Rain Rain
6:15 AM 69.8 °F - 69.8 °F 100% 30.33 in 10.0 mi ESE 3.5 mph - N/A   Overcast
6:35 AM 68.0 °F - 68.0 °F 100% 30.33 in 10.0 mi Calm Calm - N/A   Scattered Clouds
6:55 AM 68.0 °F - 68.0 °F 100% 30.33 in 10.0 mi ESE 3.5 mph - N/A   Scattered Clouds
7:15 AM 69.8 °F - 69.8 °F 100% 30.33 in 10.0 mi Calm Calm - N/A   Mostly Cloudy
7:35 AM 69.8 °F - 69.8 °F 100% 30.34 in 7.0 mi East 3.5 mph - N/A Rain Rain
7:55 AM 69.8 °F - 69.8 °F 100% 30.34 in 7.0 mi ESE 4.6 mph - 0.01 in Rain Rain
8:15 AM 69.8 °F - 69.8 °F 100% 30.35 in 10.0 mi Calm Calm - N/A   Mostly Cloudy
8:35 AM 71.6 °F - 71.6 °F 100% 30.35 in 10.0 mi Calm Calm - N/A   Overcast
8:55 AM 71.6 °F - 71.6 °F 100% 30.35 in 10.0 mi Calm Calm - N/A   Overcast
9:15 AM 71.6 °F - 71.6 °F 100% 30.34 in 10.0 mi East 6.9 mph - N/A   Light Drizzle
9:35 AM 73.4 °F - 73.4 °F 100% 30.35 in 10.0 mi ESE 4.6 mph - N/A   Mostly Cloudy
9:55 AM 71.6 °F - 71.6 °F 100% 30.34 in 10.0 mi ESE 4.6 mph - N/A   Overcast
10:15 AM 73.4 °F - 73.4 °F 100% 30.34 in 10.0 mi East 5.8 mph - N/A   Mostly Cloudy
10:35 AM 75.2 °F - 73.4 °F 94% 30.33 in 10.0 mi East 5.8 mph - N/A   Overcast
10:55 AM 73.4 °F - 73.4 °F 100% 30.34 in 10.0 mi SE 4.6 mph - N/A Rain Light Rain
11:15 AM 73.4 °F - 73.4 °F 100% 30.35 in 10.0 mi SSE 9.2 mph - N/A Rain Light Rain
11:35 AM 73.4 °F - 73.4 °F 100% 30.35 in 7.0 mi SSE 5.8 mph - 0.01 in Rain Rain
11:55 AM 73.4 °F - 73.4 °F 100% 30.34 in 7.0 mi South 4.6 mph - 0.04 in Rain Rain
12:15 PM 73.4 °F - 73.4 °F 100% 30.34 in 10.0 mi South 6.9 mph - 0.01 in   Light Drizzle
12:35 PM 75.2 °F - 73.4 °F 94% 30.34 in 10.0 mi South 4.6 mph - 0.01 in   Scattered Clouds
12:55 PM 75.2 °F - 71.6 °F 89% 30.34 in 10.0 mi Calm Calm - 0.01 in   Mostly Cloudy
1:15 PM 78.8 °F - 73.4 °F 83% 30.33 in 10.0 mi SW 3.5 mph - N/A   Mostly Cloudy
1:35 PM 78.8 °F - 73.4 °F 83% 30.33 in 10.0 mi SSE 4.6 mph - N/A   Mostly Cloudy
1:55 PM 78.8 °F - 73.4 °F 83% 30.33 in 10.0 mi South 5.8 mph - N/A   Mostly Cloudy
2:15 PM 80.6 °F 85.4 °F 73.4 °F 79% 30.32 in 10.0 mi WSW 5.8 mph - N/A   Scattered Clouds
2:35 PM 80.6 °F 85.4 °F 73.4 °F 79% 30.31 in 10.0 mi South 8.1 mph - N/A   Scattered Clouds
2:55 PM 80.6 °F 85.4 °F 73.4 °F 79% 30.31 in 10.0 mi South 10.4 mph - N/A   Scattered Clouds
3:15 PM 80.6 °F 85.4 °F 73.4 °F 79% 30.30 in 10.0 mi ESE 6.9 mph - N/A   Mostly Cloudy
3:35 PM 80.6 °F 84.6 °F 71.6 °F 74% 30.30 in 10.0 mi SE 9.2 mph - N/A   Mostly Cloudy
3:55 PM 82.4 °F 87.2 °F 71.6 °F 70% 30.29 in 10.0 mi SSE 12.7 mph 16.1 mph N/A   Scattered Clouds
4:15 PM 82.4 °F 87.2 °F 71.6 °F 70% 30.28 in 10.0 mi SSE 10.4 mph - N/A   Scattered Clouds
4:35 PM 82.4 °F 87.2 °F 71.6 °F 70% 30.27 in 10.0 mi SE 6.9 mph - N/A   Scattered Clouds
4:55 PM 82.4 °F 87.2 °F 71.6 °F 70% 30.27 in 10.0 mi SSE 9.2 mph - N/A   Scattered Clouds
5:15 PM 82.4 °F 86.3 °F 69.8 °F 66% 30.28 in 10.0 mi SSE 8.1 mph - N/A Thunderstorm Clear
5:35 PM 82.4 °F 87.2 °F 71.6 °F 70% 30.27 in 10.0 mi SSE 10.4 mph - N/A   Clear
5:55 PM 80.6 °F 84.6 °F 71.6 °F 74% 30.27 in 10.0 mi SSE 16.1 mph 23.0 mph N/A   Scattered Clouds
6:15 PM 80.6 °F 84.6 °F 71.6 °F 74% 30.28 in 10.0 mi SSE 11.5 mph 18.4 mph N/A   Scattered Clouds
6:35 PM 78.8 °F - 71.6 °F 78% 30.29 in 10.0 mi SSE 8.1 mph - N/A   Scattered Clouds
6:55 PM 77.0 °F - 71.6 °F 83% 30.29 in 10.0 mi SE 9.2 mph - N/A   Scattered Clouds
7:15 PM 78.8 °F - 71.6 °F 78% 30.29 in 10.0 mi ESE 8.1 mph - N/A Thunderstorm Clear
7:35 PM 77.0 °F - 73.4 °F 89% 30.30 in 10.0 mi ESE 6.9 mph - N/A   Scattered Clouds
7:55 PM 75.2 °F - 71.6 °F 89% 30.31 in 10.0 mi ESE 5.8 mph - N/A   Mostly Cloudy
8:15 PM 75.2 °F - 71.6 °F 89% 30.30 in 10.0 mi SE 6.9 mph - N/A Rain Light Rain
8:35 PM 75.2 °F - 71.6 °F 89% 30.30 in 4.0 mi SE 4.6 mph - N/A   Scattered Clouds
8:55 PM 73.4 °F - 71.6 °F 94% 30.31 in 10.0 mi SSE 8.1 mph - N/A Rain Light Rain
9:15 PM 73.4 °F - 71.6 °F 94% 30.31 in 10.0 mi SSE 5.8 mph - N/A   Scattered Clouds
9:35 PM 73.4 °F - 71.6 °F 94% 30.31 in 10.0 mi Calm Calm - N/A   Clear
9:55 PM 73.4 °F - 71.6 °F 94% 30.31 in 10.0 mi ESE 3.5 mph - N/A   Clear
10:15 PM 71.6 °F - 71.6 °F 100% 30.32 in 10.0 mi Calm Calm - N/A   Scattered Clouds
10:35 PM 73.4 °F - 71.6 °F 94% 30.32 in 10.0 mi Calm Calm - N/A   Mostly Cloudy
10:55 PM 71.6 °F - 71.6 °F 100% 30.32 in 10.0 mi Calm Calm - N/A   Scattered Clouds
11:15 PM 71.6 °F - 71.6 °F 100% 30.32 in 10.0 mi Calm Calm - N/A   Mostly Cloudy
11:35 PM 71.6 °F - 71.6 °F 100% 30.31 in 10.0 mi East 3.5 mph - N/A   Scattered Clouds
11:55 PM 71.6 °F - 71.6 °F 100% 30.32 in 10.0 mi ESE 3.5 mph - N/A   Scattered Clouds